Cloud_Cover
100 100 100 95 63 84 100 74 96 75 18 80 100 100 100 100 100 78 96 100 100 100 100 100 76 100 86 96 72 32 7 2
100 100 100 100 100 100 87 36 100 100 100 100 100 96 33 59 100 100 76 100 89 100 100 90 35 48 5 17 11 0 0 1
100 100 100 99 100 100 100 100 96 100 100 100 97 100 100 100 100 92 88 66 30 54 15 26 22 5 6 0 5 5 5 5
100 100 100 100 100 100 100 100 100 100 100 100 100 82 55 82 42 9 40 6 5 16 72 14 3 0 2 5 60 80 94 25
100 100 100 100 99 100 100 100 100 99 61 41 23 24 49 7 5 5 5 12 40 10 5 5 5 14 5 90 97 100 95 5
8 56 96 76 55 83 49 17 78 99 21 16 93 70 5 44 49 20 96 75 60 5 7 5 59 52 41 100 100 100 93 20
40 5 5 5 5 17 18 67 93 25 7 100 100 5 10 46 12 5 82 79 94 49 5 8 91 100 100 56 95 53 74 15
5 5 5 5 5 5 5 5 29 7 87 100 100 40 45 98 100 89 46 94 97 100 91 76 100 100 95 90 100 96 23 5
5 6 42 76 22 20 72 88 56 46 97 100 100 100 97 100 100 100 100 99 100 66 99 74 99 98 17 100 100 79 51 33
50 14 5 32 100 100 100 100 89 5 18 83 68 54 30 45 96 98 83 59 92 100 77 97 100 56 100 37 72 95 79 5
5 5 4 5 5 18 83 89 35 4 5 93 100 100 99 99 71 49 92 100 96 100 100 100 100 100 100 100 100 89 20 6
5 5 6 8 5 5 2 2 2 5 37 100 100 100 76 89 97 100 69 89 100 100 100 100 100 100 100 100 98 76 40 15
5 70 56 2 0 0 0 3 61 98 100 91 90 78 99 100 97 100 100 100 100 100 100 81 100 100 100 100 98 86 12 14
5 3 0 0 0 0 61 100 100 99 88 21 19 98 100 95 100 100 100 92 100 100 62 85 100 99 100 100 90 74 79 70
0 0 5 5 5 53 100 94 36 3 3 5 5 8 6 44 95 100 98 86 92 87 100 92 100 95 100 100 100 100 98 97
0 4 5 2 2 42 5 8 5 5 5 5 5 11 25 100 88 97 97 90 91 100 80 70 99 100 100 99 100 100 100 100
3 2 0 0 5 5 5 2 5 46 41 60 97 66 56 100 89 100 100 100 100 100 100 97 100 100 100 100 100 100 100 79
0 0 4 5 4 5 5 12 48 67 83 60 51 66 47 94 87 94 100 100 100 100 100 100 100 100 100 100 100 100 100 100
5 5 5 5 5 5 5 10 26 41 90 93 32 8 49 84 100 100 100 99 94 100 100 100 100 100 100 100 100 100 100 38